Home   Weather   Puerto Williams   Past weeks

Flag for Chile Past Weather in Puerto Williams, Chile — Yesterday and Last 2 Weeks

Now
43 °F

Scattered clouds.


Feels Like: 37 °F
Forecast: 39 / 47 °F
Wind: 9 mph from North

Location: Ushuaia Aerodrome

Current Time: Apr 26, 2017 at 11:13:52 am

Latest Report: Apr 26, 2017 at 10:00 am


Visibility: N/A

Pressure: 29.39 "Hg

Humidity: 71%

Dew Point: 34 °F

Location of Puerto WilliamsLocation

Past Weather in Puerto Williams — Graph

°F

Puerto Williams Temperature Yesterday

Maximum temperature yesterday: 48 °F (at 3:00 pm)
Minimum temperature yesterday: 43 °F (at 8:00 am)
Average temperature yesterday: 45 °F

High & Low Weather Summary for the Past Weeks

 TemperatureHumidityPressure
High59 °F (Apr 15, 3:00 pm)100% (Apr 17, 10:00 am)30.21 "Hg (Apr 17, 10:00 am)
Low37 °F (Apr 22, 1:00 am)41% (Apr 19, 3:00 pm)29.00 "Hg (Apr 18, 7:00 pm)
Average46 °F73%29.66 "Hg
* Reported Apr 11 9:00 am — Apr 26 9:00 am, Puerto Williams, Weather by CustomWeather, © 2017

Note: Actual official high and low records may vary slightly from our data, if they occured in-between our weather recording intervals... More about our weather records

Advertising

Puerto Williams Weather History for the Previous 24 Hours

Scroll right to see more
 ConditionsComfort  
Time TempWeatherWind HumidityBarometerVisibility
9:00 am
Wed, Apr 26
41 °FPartly sunny.6 mph70%29.42 "HgN/A
8:00 am41 °FPassing clouds.3 mph66%29.42 "HgN/A
7:00 am41 °FPassing clouds.10 mph70%29.45 "HgN/A
6:00 am45 °FPassing clouds.12 mph66%29.45 "HgN/A
4:00 am43 °FPassing clouds.20 mph76%29.45 "HgN/A
3:00 am45 °FPassing clouds.18 mph71%29.47 "HgN/A
2:00 am45 °FPassing clouds.22 mph76%29.47 "HgN/A
1:00 am45 °FPassing clouds.23 mph76%29.47 "HgN/A
12:00 am43 °FQuite cool.21 mph76%29.45 "HgN/A
11:00 pm
Tue, Apr 25
43 °FPassing clouds.22 mph76%29.47 "HgN/A
9:00 pm45 °FPassing clouds.22 mph71%29.47 "HgN/A
8:00 pm46 °FPassing clouds.21 mph71%29.47 "HgN/A
7:00 pm45 °FPassing clouds.15 mph71%29.47 "HgN/A
6:00 pm46 °FScattered clouds.13 mph62%29.47 "HgN/A
5:00 pm46 °FScattered clouds.18 mph62%29.45 "HgN/A
4:00 pm48 °FScattered clouds.13 mph58%29.45 "HgN/A
3:00 pm48 °FPassing clouds.16 mph58%29.45 "HgN/A
2:00 pm46 °FScattered clouds.18 mph66%29.45 "HgN/A
1:00 pm46 °FBroken clouds.16 mph66%29.45 "HgN/A
12:00 pm45 °FScattered showers. Partly sunny.17 mph87%29.45 "HgN/A
11:00 am45 °FScattered showers. Cloudy.21 mph87%29.45 "HgN/A
Weather by CustomWeather, © 2017

See weather overviewHow to use our weather pages